Location: Luxembourg
(49.6117°N, 6.1300°E)
Time: 22:32:53
(UTC+01:00)

ISS - Pass Details

Date: 01 February 2019
Orbit: 403 x 411 km, 51.6° (Epoch: 23 February)

Event Time Altitude Azimuth Distance (km) Brightness Sun altitude
Rises 20:28:56 0° 288° (WNW) 2,341 1.2 -29.0°
Reaches altitude 10° 20:31:01 10° 287° (WNW) 1,479 -0.1 -29.3°
Enters shadow 20:31:46 16° 285° (WNW) 1,182 -0.7 -29.4°
